STARLINK-34751, 65338

Orbit data source: Space-Track

STARLINK-34751, 65338 is a payload satellite owned by SpaceX/Seattle (US) in LEO that was launched on Wed, 27 Aug 2025 UTC via an FALCON 9 launch vehicle from the Air Force Eastern Test Range (AFETR). Payload-class satellites include a variety of spacecraft equipped with specific instruments for various scientific and technological missions. These include communications satellites like Starlink; space stations such as the ISS; scientific satellites like the Hubble; Earth observation satellites from companies like Planet Labs, Umbra, and HawkEye 360; GPS; miniature CubeSats for education and research; and military/defense satellites.

Loading next visibility...
Identifier
65338, 2025-189R
Orbit
LEO
Country
Flag of USUS
Related business
Manufacturer
SpaceX/Seattle
Mission
Operational Commercial Communications
Bus & Motor
STARLINK V2MO, Unknown motor
Mass
575 kg wet, ~530 kg dry
Launch date (UTC)
2025-08-27 (10 months ago)
Launch vehicle
FALCON 9
Launch site
Air Force Eastern Test Range (AFETR)
Object type
Payload
Rocket body
Debris
Shape & HBR
Box + 2 Pan, 17.7 m
Radar Cross Section
36.964 m², Large (>1 m²)

Expand to show TLE details & history
Last TLE update: 16 hours ago

TLE from 16 hours ago
0 STARLINK-34751
1 65338U 25189R   26171.16907687  .00016307  00000-0  53565-3 0  9995
2 65338  53.1590  90.2539 0001530  94.7599 265.3578 15.31727683 46807
Epoch: 2026-06-20T04:03Z
TLE epoch observation values (Epoch: 2026-06-20T04:03:28.241Z)
Latitude
0.00004°
Longitude
120.9987°
Altitude
471.643 km
Speed
7.631 km/s
True Right ascension
06h 01m 00s
True Declination
0° 00' 00"
Sunlit
Object was in daylight at epoch
Visualization orbit readout
Latitude
Unknown
Longitude
Unknown
Altitude
Unknown
Speed
Unknown
Apparent Right ascension
Unknown
Apparent Declination
Unknown
Sunlit
N/A
Visualization observer readout
Local Sidereal Time
07:13:01
Azimuth
Unknown
Elevation
Unknown
Doppler factor
Unknown
Orbital elements
Apogee altitude
471.962 km
Perigee altitude
469.866 km
Semi-major axis
6,849.051 km
Eccentricity
0.00015
Inclination
53.159°
RAAN
90.2539°
Arg. of periapsis
94.7599°
True anomaly
265.34033°
Mean anomaly
265.3578°
Eccentric anomaly
265.34906°
Mean motion
3.82911 °/min
Orbital period
94.02 mins
BSTAR
0.00053565
Loading maneuver chart data...
Computing Atmospheric mass density...
Loading historical data...
Loading historical data...
Loading historical data...
Loading historical data...
Loading historical data...
Loading historical data...
Loading historical data...

Documentation

Showing up to 5 results
|